Terug naar catalogus

STARLINK-1771

ActiefCommunicatieVLEO
NORAD 46384·PAYLOAD·🇺🇸 United States

Gelanceerd Sep 3, 2020 vanaf Cape Canaveral Space Force Station

Loading…

Volgende Passages (komende 24 uur)

TLE

VersSource: CelesTrak SupGP

Epoch: Sep 15, 2026, 02:58 UTC

1 46384C 20062BN  26258.12409722  .00117810  00000+0  81997-3 0  2587
2 46384  53.0326 141.3323 0004065 114.1378  98.4478 15.73623062    19

Volg STARLINK-1771 in realtime met AllMySat

Download on the App Store